Regional Weather Roundup
Issued by NWS Goodland, KS

Home | Current Version | Previous Version | Graphics & Text | Print | Product List | Glossary On
Versions: 1 2 3 4 5 6 7 8 9 10 11 12 13 14 15 16 17 18 19 20 21 22 23 24 25 26 27 28 29 30 31 32 33 34 35 36 37 38 39 40 41 42 43 44 45 46 47 48 49 50
000
ASUS43 KGLD 030608
RWRGLD

GOODLAND FORECAST AREA HOURLY WEATHER ROUNDUP
NATIONAL WEATHER SERVICE GOODLAND KS
1100 PM MST MON MAR 02 2015

...OFFICIAL OBSERVATIONS...

CITY           SKY/WX    TMP DP  RH WIND       PRES   REMARKS
GOODLAND KS    FAIR      33  31  92 S21       29.54F
HILL CITY KS   FAIR      30  24  78 S15G21    29.67F WCI  19
IMPERIAL NEB     N/A     29  25  85 E7        29.61R FOG
MCCOOK NEB     CLOUDY    31  24  75 SE12      29.63F
AKRON CO       MOCLDY    27  26  96 NW16      29.57R FOG     WCI  15
BURLINGTON CO  FAIR      35  31  85 S23       29.53F
LIMON CO       FAIR      34  28  79 SW9       29.57R
$$

...UNOFFICIAL OBSERVATIONS...

CITY           SKY/WX    TMP DP  RH WIND       PRES   REMARKS
COLBY KS       PTCLDY    34  34 100 S20G32    29.56F
GOVE KS          N/A     33  32  96 MISG        N/A
LENORA KS        N/A     28  32 100 S20         N/A  WCI  15
SHARON SPRINGS   N/A     35  33  91 S15         N/A
KIT CARSON CO    N/A     29  27  92 MISG        N/A
YUMA CO          N/A     28  26  90 CALM        N/A
$$


USA.gov is the U.S. government's official web portal to all federal, state and local government web resources and services.